Weather History for Sturgis, MI

Change the Weather History Date:

Wednesday, January 29, 2014

  Actual Average (KHAI) Record (KHAI)
Temperature  
Mean Temperature 5 °F -  
Max Temperature 15 °F 32 °F 57 °F (2013)
Min Temperature -5 °F 15 °F -10 °F (1977)
Degree Days  
Heating Degree Days 60    
Moisture  
Dew Point -4 °F    
Average Humidity 65    
Maximum Humidity 78    
Minimum Humidity 45    
Precipitation  
Precipitation 0.00 in - - ()
Sea Level Pressure  
Sea Level Pressure 30.14 in    
Wind  
Wind Speed 11 mph (SW)    
Max Wind Speed 18 mph    
Max Gust Speed 26 mph    
Visibility 10 miles    
Events      
Averages and records for this station are not official NWS values.
T = Trace of Precipitation, MM = Missing Value Source: NWS Daily Summary

Daily Weather History Graph

Daily Weather History Graph

Search for Another Location

Airport:

Trip Planner

Search our weather history database for the weather conditions in past years. The results will help you decide how hot, cold, wet, or windy it might be!

Date:

Astronomy

Jan. 29, 2014 Rise Set
Actual Time 7:57 AM EST 5:53 PM EST
Civil Twilight 7:27 AM EST 6:23 PM EST
Nautical Twilight 6:53 AM EST 6:56 PM EST
Astronomical Twilight 6:21 AM EST 7:29 PM EST
Moon 6:33 AM EST (1/29) 4:52 PM EST (1/29)
Length of Visible Light 10h 55m
Length of Day
9h 56m
Waning Crescent, 2% of the Moon is Illuminated
Jan 29
Waning Crescent
Jan 30
New
Feb 6
First Quarter
Feb 14
Full
Feb 22
Last Quarter

Hourly Weather History & Observations

Time (EST) Temp. Windchill Dew Point Humidity Pressure Visibility Wind Dir Wind Speed Gust Speed Precip Events Conditions
12:15 AM -5.8 °F -24.4 °F -11.2 °F 77% 30.18 in 10.0 mi SW 11.5 mph - N/A   Clear
12:35 AM -5.8 °F -22.4 °F -13.0 °F 71% 30.17 in 10.0 mi SW 9.2 mph - N/A   Clear
12:55 AM -5.8 °F -22.4 °F -11.2 °F 77% 30.17 in 10.0 mi SW 9.2 mph - N/A   Clear
1:15 AM -5.8 °F -22.4 °F -13.0 °F 71% 30.16 in 10.0 mi SW 9.2 mph - N/A   Clear
1:35 AM -5.8 °F -23.4 °F -11.2 °F 77% 30.16 in 10.0 mi SW 10.4 mph - N/A   Clear
1:55 AM -5.8 °F -25.2 °F -11.2 °F 77% 30.15 in 10.0 mi SW 12.7 mph - N/A   Clear
2:15 AM -5.8 °F -24.4 °F -11.2 °F 77% 30.15 in 10.0 mi SW 11.5 mph - N/A   Clear
2:35 AM -5.8 °F -26.0 °F -11.2 °F 77% 30.14 in 10.0 mi SW 13.8 mph - N/A   Clear
2:55 AM -4.0 °F -23.0 °F -9.4 °F 78% 30.15 in 10.0 mi SW 12.7 mph - N/A   Clear
3:15 AM -4.0 °F -22.1 °F -9.4 °F 78% 30.15 in 10.0 mi SW 11.5 mph - N/A   Clear
3:35 AM -4.0 °F -22.1 °F -9.4 °F 78% 30.15 in 10.0 mi SW 11.5 mph - N/A   Clear
3:55 AM -4.0 °F -22.1 °F -9.4 °F 78% 30.14 in 10.0 mi SW 11.5 mph - N/A   Clear
4:15 AM -4.0 °F -21.2 °F -9.4 °F 78% 30.14 in 10.0 mi SW 10.4 mph - N/A   Clear
4:35 AM -4.0 °F -20.2 °F -9.4 °F 78% 30.13 in 10.0 mi SW 9.2 mph - N/A   Clear
4:55 AM -2.2 °F -18.0 °F -9.4 °F 71% 30.13 in 10.0 mi SW 9.2 mph - N/A   Clear
5:15 AM -2.2 °F -18.0 °F -9.4 °F 71% 30.12 in 10.0 mi SW 9.2 mph - N/A   Clear
5:35 AM -4.0 °F -19.0 °F -9.4 °F 78% 30.12 in 10.0 mi SW 8.1 mph - N/A   Clear
5:55 AM -2.2 °F -18.9 °F -9.4 °F 71% 30.12 in 10.0 mi SW 10.4 mph - N/A   Clear
6:15 AM -2.2 °F -18.9 °F -9.4 °F 71% 30.12 in 10.0 mi SW 10.4 mph - N/A   Clear
6:35 AM -2.2 °F -18.9 °F -9.4 °F 71% 30.12 in 10.0 mi SW 10.4 mph - N/A   Clear
6:55 AM -2.2 °F -18.9 °F -9.4 °F 71% 30.12 in 10.0 mi SW 10.4 mph - N/A   Clear
7:15 AM -2.2 °F -18.9 °F -9.4 °F 71% 30.12 in 10.0 mi SW 10.4 mph - N/A   Clear
7:35 AM -2.2 °F -18.9 °F -9.4 °F 71% 30.12 in 10.0 mi SW 10.4 mph - N/A   Clear
7:55 AM -2.2 °F -18.9 °F -9.4 °F 71% 30.13 in 10.0 mi SW 10.4 mph - N/A   Clear
8:15 AM -0.4 °F -16.7 °F -9.4 °F 66% 30.14 in 10.0 mi SW 10.4 mph - N/A   Clear
8:35 AM -0.4 °F -16.7 °F -7.6 °F 72% 30.14 in 10.0 mi SW 10.4 mph - N/A   Clear
8:55 AM -0.4 °F -17.6 °F -7.6 °F 72% 30.14 in 10.0 mi SW 11.5 mph - N/A   Clear
9:15 AM 1.4 °F -15.3 °F -7.6 °F 66% 30.14 in 10.0 mi SW 11.5 mph - N/A   Clear
9:35 AM 3.2 °F -13.1 °F -5.8 °F 66% 30.14 in 10.0 mi SW 11.5 mph - N/A   Clear
9:55 AM 3.2 °F -11.3 °F -5.8 °F 66% 30.15 in 10.0 mi WSW 9.2 mph - N/A   Clear
10:15 AM 6.8 °F -10.7 °F -5.8 °F 56% 30.15 in 10.0 mi WSW 15.0 mph 21.9 mph N/A   Clear
10:35 AM 6.8 °F -10.7 °F -4.0 °F 61% 30.15 in 10.0 mi WSW 15.0 mph - N/A   Clear
10:54 AM 6.8 °F -10.7 °F -4.0 °F 61% 30.15 in 10.0 mi WSW 15.0 mph - N/A   Clear
11:15 AM 8.6 °F -8.3 °F -4.0 °F 57% 30.16 in 10.0 mi West 15.0 mph - N/A   Clear
11:34 AM 8.6 °F -8.3 °F -2.2 °F 62% 30.16 in 10.0 mi WSW 15.0 mph 21.9 mph N/A   Clear
11:55 AM 10.4 °F -6.0 °F -2.2 °F 57% 30.17 in 7.0 mi WSW 15.0 mph 23.0 mph N/A   Clear
12:15 PM 10.4 °F -6.6 °F -2.2 °F 57% 30.16 in 10.0 mi West 16.1 mph 23.0 mph N/A   Clear
12:34 PM 10.4 °F -7.7 °F -2.2 °F 57% 30.15 in 7.0 mi West 18.4 mph 26.5 mph N/A   Clear
12:55 PM 12.2 °F -5.3 °F -2.2 °F 53% 30.14 in 10.0 mi WSW 18.4 mph 23.0 mph N/A   Clear
1:15 PM 12.2 °F -3.7 °F -2.2 °F 53% 30.13 in 10.0 mi WSW 15.0 mph 21.9 mph N/A   Clear
1:34 PM 12.2 °F -1.0 °F -2.2 °F 53% 30.13 in 10.0 mi WSW 10.4 mph 20.7 mph N/A   Clear
1:55 PM 14.0 °F -0.2 °F -2.2 °F 49% 30.14 in 10.0 mi WSW 12.7 mph - N/A   Clear
2:15 PM 14.0 °F -2.0 °F -2.2 °F 49% 30.14 in 10.0 mi WSW 16.1 mph 20.7 mph N/A   Clear
2:34 PM 14.0 °F -0.8 °F -2.2 °F 49% 30.13 in 10.0 mi WSW 13.8 mph 20.7 mph N/A   Clear
2:55 PM 15.8 °F 1.4 °F -2.2 °F 45% 30.14 in 10.0 mi WSW 13.8 mph - N/A   Clear
3:15 PM 15.8 °F 1.4 °F -0.4 °F 49% 30.13 in 10.0 mi WSW 13.8 mph - N/A   Clear
3:34 PM 15.8 °F 3.4 °F -0.4 °F 49% 30.14 in 10.0 mi SW 10.4 mph - N/A   Clear
3:55 PM 15.8 °F 1.4 °F -0.4 °F 49% 30.14 in 10.0 mi SW 13.8 mph - N/A   Clear
4:15 PM 15.8 °F 1.4 °F -0.4 °F 49% 30.15 in 10.0 mi SW 13.8 mph - N/A   Clear
4:34 PM 15.8 °F 0.3 °F -0.4 °F 49% 30.15 in 10.0 mi SW 16.1 mph - N/A   Clear
4:55 PM 15.8 °F 1.4 °F -0.4 °F 49% 30.15 in 10.0 mi SW 13.8 mph 18.4 mph N/A   Clear
5:15 PM 15.8 °F 1.4 °F -0.4 °F 49% 30.14 in 10.0 mi SW 13.8 mph - N/A   Clear
5:34 PM 12.2 °F -3.1 °F 1.4 °F 62% 30.14 in 10.0 mi SSW 13.8 mph - N/A   Clear
5:55 PM 12.2 °F -1.0 °F -0.4 °F 57% 30.14 in 10.0 mi SW 10.4 mph - N/A   Clear
6:14 PM 10.4 °F -0.4 °F -0.4 °F 62% 30.15 in 10.0 mi SW 6.9 mph - N/A   Clear
6:35 PM 10.4 °F -3.3 °F -0.4 °F 62% 30.14 in 10.0 mi SSW 10.4 mph - N/A   Clear
6:55 PM 10.4 °F -1.5 °F -0.4 °F 62% 30.14 in 10.0 mi SSW 8.1 mph - N/A   Clear
7:14 PM 10.4 °F -1.5 °F -0.4 °F 62% 30.14 in 10.0 mi SSW 8.1 mph - N/A   Clear
7:35 PM 8.6 °F -5.5 °F -0.4 °F 67% 30.13 in 10.0 mi South 10.4 mph - N/A   Clear
7:55 PM 10.4 °F -3.3 °F 1.4 °F 67% 30.13 in 10.0 mi SSW 10.4 mph - N/A   Clear
8:14 PM 10.4 °F -4.1 °F 1.4 °F 67% 30.12 in 10.0 mi South 11.5 mph - N/A   Clear
8:35 PM 10.4 °F -3.3 °F 1.4 °F 67% 30.12 in 10.0 mi South 10.4 mph - N/A   Clear
8:55 PM 10.4 °F -0.4 °F 1.4 °F 67% 30.12 in 10.0 mi South 6.9 mph - N/A   Clear
9:14 PM 8.6 °F -4.7 °F -0.4 °F 67% 30.12 in 10.0 mi South 9.2 mph - N/A   Clear
9:35 PM 10.4 °F -2.4 °F -0.4 °F 62% 30.11 in 10.0 mi South 9.2 mph - N/A   Clear
9:55 PM 10.4 °F -2.4 °F 1.4 °F 67% 30.11 in 10.0 mi South 9.2 mph - N/A   Clear
10:14 PM 10.4 °F -3.3 °F 1.4 °F 67% 30.11 in 10.0 mi South 10.4 mph - N/A   Clear
10:35 PM 10.4 °F -3.3 °F 1.4 °F 67% 30.10 in 10.0 mi South 10.4 mph - N/A   Clear
10:55 PM 10.4 °F -3.3 °F 1.4 °F 67% 30.10 in 10.0 mi South 10.4 mph - N/A   Clear
11:14 PM 12.2 °F -2.5 °F 1.4 °F 62% 30.09 in 10.0 mi South 12.7 mph - N/A   Clear
11:35 PM 12.2 °F -3.1 °F 3.2 °F 67% 30.09 in 10.0 mi South 13.8 mph 18.4 mph N/A   Clear
11:55 PM 12.2 °F -2.5 °F 3.2 °F 67% 30.10 in 10.0 mi SSW 12.7 mph - N/A   Clear